Washington, IA

12:43 AM CST on November 23, 2017 (GMT -0600)
Washington Municipal

Weather History for KAWG - October, 2012

Change the Weather History Date:

Tuesday, October 9, 2012

  Actual Average Record
Temperature  
Mean Temperature 50 °F -  
Max Temperature 60 °F 66 °F 89 °F (2010)
Min Temperature 39 °F 43 °F 28 °F (2000)
Degree Days  
Heating Degree Days 16    
Moisture  
Dew Point 37 °F    
Average Humidity 66    
Maximum Humidity 93    
Minimum Humidity 42    
Precipitation  
Precipitation 0.09 in - - ()
Sea Level Pressure  
Sea Level Pressure 29.92 in    
Wind  
Wind Speed 13 mph (WSW)    
Max Wind Speed 20 mph    
Max Gust Speed 31 mph    
Visibility 10 miles    
Events Rain    
Averages and records for this station are not official NWS values.
T = Trace of Precipitation, MM = Missing Value Source: NWS Daily Summary

Daily Weather History Graph

Daily Weather History Graph

Search for Another Location

Airport or City:

Trip Planner

Search our weather history database for the weather conditions in past years. The results will help you decide how hot, cold, wet, or windy it might be!

Date:

Astronomy

Oct. 09, 2012 Rise Set
Actual Time 7:12 AM CDT 6:34 PM CDT
Civil Twilight 6:44 AM CDT 7:02 PM CDT
Nautical Twilight 6:12 AM CDT 7:34 PM CDT
Astronomical Twilight 5:40 AM CDT 8:06 PM CDT
Moon 12:45 AM CDT (10/9) 3:05 PM CDT (10/9)
Length of Visible Light 12h 17m
Length of Day
11h 22m
Last Quarter, 36% of the Moon is Illuminated
Oct 9
Last Quarter
Oct 15
New
Oct 21
First Quarter
Oct 29
Full
Nov 6
Last Quarter

Hourly Weather History & Observations

Time (CDT) Temp. Windchill Dew Point Humidity Pressure Visibility Wind Dir Wind Speed Gust Speed Precip Events Conditions
12:15 AM 50.0 °F - 33.8 °F 54% 29.92 in 10.0 mi SSW 15.0 mph - N/A   Clear
12:35 AM 50.0 °F - 33.8 °F 54% 29.92 in 10.0 mi SSW 16.1 mph - N/A   Clear
12:55 AM 50.0 °F - 33.8 °F 54% 29.91 in 10.0 mi South 15.0 mph - N/A   Clear
1:15 AM 48.2 °F - 33.8 °F 58% 29.92 in 10.0 mi SSW 13.8 mph - N/A   Scattered Clouds
1:35 AM 48.2 °F - 33.8 °F 58% 29.91 in 10.0 mi SSW 15.0 mph 21.9 mph N/A   Mostly Cloudy
1:55 AM 48.2 °F - 33.8 °F 58% 29.91 in 10.0 mi SSW 15.0 mph - N/A   Overcast
2:15 AM 48.2 °F - 33.8 °F 58% 29.91 in 10.0 mi SSW 15.0 mph - N/A   Overcast
3:15 AM 48.2 °F - 33.8 °F 58% 29.90 in 10.0 mi SSW 12.7 mph - N/A   Overcast
3:35 AM 48.2 °F - 33.8 °F 58% 29.90 in 10.0 mi SSW 13.8 mph - N/A   Overcast
3:55 AM 46.4 °F 40.7 °F 33.8 °F 62% 29.90 in 10.0 mi SSW 12.7 mph - N/A   Overcast
4:15 AM 46.4 °F 40.4 °F 33.8 °F 62% 29.90 in 10.0 mi SSW 13.8 mph - N/A   Overcast
4:35 AM 46.4 °F 41.1 °F 33.8 °F 62% 29.89 in 10.0 mi SSW 11.5 mph - N/A   Scattered Clouds
4:55 AM 44.6 °F 38.4 °F 35.6 °F 71% 29.89 in 10.0 mi SSW 12.7 mph - N/A   Clear
5:15 AM 44.6 °F 38.8 °F 35.6 °F 71% 29.89 in 10.0 mi South 11.5 mph - N/A   Clear
5:35 AM 44.6 °F 38.8 °F 35.6 °F 71% 29.89 in 10.0 mi SSW 11.5 mph - N/A   Clear
5:55 AM 44.6 °F 38.4 °F 35.6 °F 71% 29.88 in 10.0 mi SSW 12.7 mph 19.6 mph N/A   Clear
6:15 AM 44.6 °F 38.1 °F 35.6 °F 71% 29.88 in 10.0 mi SSW 13.8 mph 20.7 mph N/A   Clear
6:35 AM 44.6 °F 38.8 °F 35.6 °F 71% 29.88 in 10.0 mi South 11.5 mph - N/A   Clear
6:55 AM 44.6 °F 38.4 °F 35.6 °F 71% 29.88 in 10.0 mi SSW 12.7 mph - N/A   Clear
7:15 AM 44.6 °F 37.4 °F 35.6 °F 71% 29.88 in 10.0 mi SSW 16.1 mph - N/A   Scattered Clouds
7:35 AM 44.6 °F 38.4 °F 35.6 °F 71% 29.87 in 10.0 mi SSW 12.7 mph 19.6 mph N/A   Scattered Clouds
7:55 AM 46.4 °F 41.1 °F 35.6 °F 66% 29.88 in 10.0 mi SSW 11.5 mph - N/A   Clear
8:15 AM 46.4 °F 40.7 °F 35.6 °F 66% 29.88 in 10.0 mi SSW 12.7 mph - N/A   Clear
8:35 AM 46.4 °F 41.1 °F 37.4 °F 71% 29.88 in 10.0 mi SSW 11.5 mph - N/A   Clear
8:55 AM 48.2 °F - 37.4 °F 66% 29.89 in 10.0 mi SSW 13.8 mph - N/A   Scattered Clouds
9:15 AM 48.2 °F - 37.4 °F 66% 29.89 in 10.0 mi SSW 10.4 mph 17.3 mph N/A   Scattered Clouds
9:35 AM 51.8 °F - 37.4 °F 58% 29.89 in 10.0 mi SW 12.7 mph 17.3 mph N/A   Scattered Clouds
9:55 AM 51.8 °F - 37.4 °F 58% 29.89 in 10.0 mi SSW 12.7 mph 18.4 mph N/A   Clear
10:15 AM 53.6 °F - 37.4 °F 54% 29.89 in 10.0 mi SW 15.0 mph 18.4 mph N/A   Clear
10:35 AM 55.4 °F - 37.4 °F 51% 29.89 in 10.0 mi SW 12.7 mph - N/A   Clear
10:55 AM 57.2 °F - 37.4 °F 48% 29.90 in 10.0 mi SW 15.0 mph 19.6 mph N/A   Clear
11:15 AM 57.2 °F - 37.4 °F 48% 29.89 in 10.0 mi SW 15.0 mph 20.7 mph N/A   Clear
11:35 AM 57.2 °F - 37.4 °F 48% 29.88 in 10.0 mi SSW 13.8 mph 17.3 mph N/A   Clear
11:55 AM 57.2 °F - 37.4 °F 48% 29.88 in 10.0 mi SW 11.5 mph - N/A   Clear
12:15 PM 57.2 °F - 37.4 °F 48% 29.88 in 10.0 mi SW 15.0 mph - N/A   Clear
12:35 PM 59.0 °F - 37.4 °F 45% 29.87 in 10.0 mi SW 15.0 mph - N/A   Clear
12:55 PM 59.0 °F - 37.4 °F 45% 29.87 in 10.0 mi SW 17.3 mph - N/A   Clear
1:15 PM 60.8 °F - 37.4 °F 42% 29.87 in 10.0 mi SW 15.0 mph - N/A   Clear
1:35 PM 60.8 °F - 37.4 °F 42% 29.87 in 10.0 mi SW 15.0 mph 20.7 mph N/A   Clear
1:55 PM 60.8 °F - 37.4 °F 42% 29.86 in 10.0 mi SW 12.7 mph - N/A   Clear
2:15 PM 60.8 °F - 37.4 °F 42% 29.87 in 10.0 mi SW 13.8 mph - N/A   Clear
2:35 PM 60.8 °F - 37.4 °F 42% 29.87 in 10.0 mi WSW 15.0 mph 19.6 mph N/A   Clear
2:55 PM 60.8 °F - 37.4 °F 42% 29.87 in 10.0 mi SW 11.5 mph - N/A   Clear
3:15 PM 60.8 °F - 37.4 °F 42% 29.88 in 10.0 mi WSW 15.0 mph 19.6 mph N/A   Clear
3:35 PM 57.2 °F - 42.8 °F 59% 29.89 in 10.0 mi NNW 17.3 mph 26.5 mph N/A   Mostly Cloudy
3:55 PM 53.6 °F - 39.2 °F 58% 29.90 in 10.0 mi NNW 19.6 mph 25.3 mph N/A   Overcast
4:15 PM 53.6 °F - 39.2 °F 58% 29.91 in 10.0 mi NNW 17.3 mph 23.0 mph N/A   Overcast
4:35 PM 51.8 °F - 39.2 °F 62% 29.91 in 10.0 mi NW 15.0 mph 24.2 mph N/A   Overcast
4:55 PM 51.8 °F - 39.2 °F 62% 29.93 in 10.0 mi NNW 18.4 mph - N/A   Overcast
5:15 PM 48.2 °F - 41.0 °F 76% 29.95 in 7.0 mi NW 18.4 mph 31.1 mph N/A Rain Rain
5:35 PM 46.4 °F 39.5 °F 42.8 °F 87% 29.95 in 10.0 mi NW 17.3 mph 24.2 mph 0.05 in Rain Rain
5:55 PM 44.6 °F 37.8 °F 41.0 °F 87% 29.95 in 10.0 mi NW 15.0 mph 24.2 mph 0.06 in Rain Light Rain
6:15 PM 44.6 °F 39.2 °F 41.0 °F 87% 29.95 in 10.0 mi NW 10.4 mph - 0.01 in Rain Rain
6:35 PM 44.6 °F 40.7 °F 41.0 °F 87% 29.96 in 10.0 mi WNW 6.9 mph - 0.01 in   Light Drizzle
6:55 PM 42.8 °F 38.6 °F 41.0 °F 93% 29.96 in 10.0 mi NW 6.9 mph - 0.02 in Rain Light Rain
7:15 PM 42.8 °F 38.6 °F 41.0 °F 93% 29.95 in 10.0 mi West 6.9 mph - 0.01 in Rain Rain
7:35 PM 44.6 °F 40.2 °F 41.0 °F 87% 29.97 in 10.0 mi WNW 8.1 mph - 0.01 in Rain Light Rain
7:55 PM 44.6 °F 40.2 °F 41.0 °F 87% 29.97 in 10.0 mi WNW 8.1 mph - 0.01 in   Overcast
8:15 PM 44.6 °F 40.7 °F 41.0 °F 87% 29.98 in 10.0 mi West 6.9 mph - N/A   Mostly Cloudy
8:35 PM 44.6 °F 40.2 °F 41.0 °F 87% 29.98 in 10.0 mi West 8.1 mph - N/A   Mostly Cloudy
8:55 PM 44.6 °F 39.7 °F 39.2 °F 81% 29.98 in 10.0 mi West 9.2 mph - N/A   Scattered Clouds
9:15 PM 44.6 °F 40.2 °F 39.2 °F 81% 29.99 in 10.0 mi West 8.1 mph - N/A   Scattered Clouds
9:35 PM 42.8 °F 38.0 °F 39.2 °F 87% 30.00 in 10.0 mi West 8.1 mph - N/A   Clear
9:55 PM 42.8 °F 37.0 °F 39.2 °F 87% 30.01 in 10.0 mi West 10.4 mph - N/A   Clear
10:15 PM 42.8 °F 37.5 °F 39.2 °F 87% 30.02 in 10.0 mi West 9.2 mph - N/A   Clear
10:35 PM 41.0 °F 35.2 °F 37.4 °F 87% 30.03 in 10.0 mi West 9.2 mph - N/A   Clear
10:55 PM 41.0 °F 35.8 °F 37.4 °F 87% 30.03 in 10.0 mi WNW 8.1 mph - N/A   Clear
11:15 PM 39.2 °F 33.0 °F 35.6 °F 87% 30.03 in 10.0 mi West 9.2 mph - N/A   Clear
11:35 PM 39.2 °F 32.0 °F 35.6 °F 87% 30.04 in 10.0 mi WNW 11.5 mph - N/A   Clear
11:55 PM 39.2 °F 32.0 °F 33.8 °F 81% 30.04 in 10.0 mi WNW 11.5 mph - N/A   Clear